When you browse on this site, cookies collect data to enhance your experience and personalize the content and advertising you see.
Visit our Privacy Policy to learn more. By continuing to use the site, you agree to this use of cookies and data.
  • In Portugal
  • List of Countries
  • For 7 days
  • Water Temperature
  • Weather Map
  • Weather Widgets
  • user-avatar
    Login

    Hourly Weather Malbun

    Today, 10 April, Friday

    Time Temperature Precipitation Wind Pressure Humidity
    00:00 +3°C° 0 mm 1 mps 635 mmHg 84%
    01:00 +2°C° 0 mm 2 mps 635 mmHg 83%
    02:00 +2°C° 0 mm 2 mps 634 mmHg 82%
    03:00 +2°C° 0 mm 2 mps 634 mmHg 82%
    04:00 +2°C° 0 mm 2 mps 634 mmHg 81%
    05:00 +2°C° 0 mm 2 mps 634 mmHg 79%
    06:00 +3°C° 0 mm 2 mps 635 mmHg 78%
    07:00 +3°C° 0 mm 2 mps 635 mmHg 76%
    08:00 +7°C° 0 mm 1 mps 636 mmHg 73%
    09:00 +9°C° 0 mm 1 mps 636 mmHg 70%
    10:00 +10°C° 0 mm 0 mps 637 mmHg 68%
    11:00 +12°C° 0 mm 1 mps 637 mmHg 63%
    12:00 +13°C° 0 mm 1 mps 637 mmHg 58%
    13:00 +14°C° 0 mm 1 mps 638 mmHg 53%
    14:00 +13°C° 0 mm 1 mps 637 mmHg 53%
    15:00 +13°C° 0 mm 1 mps 637 mmHg 53%
    16:00 +13°C° 0 mm 1 mps 636 mmHg 53%
    17:00 +11°C° 0 mm 1 mps 636 mmHg 62%
    18:00 +9°C° 0 mm 1 mps 635 mmHg 71%
    19:00 +6°C° 0 mm 1 mps 634 mmHg 80%
    20:00 +6°C° 0 mm 1 mps 634 mmHg 81%
    21:00 +5°C° 0 mm 1 mps 634 mmHg 82%
    22:00 +4°C° 0 mm 1 mps 634 mmHg 82%
    23:00 +4°C° 0 mm 1 mps 634 mmHg 82%

    Tomorrow, 11 April, Saturday

    Time Temperature Precipitation Wind Pressure Humidity
    00:00 +4°C° 0 mm 1 mps 634 mmHg 81%
    01:00 +4°C° 0 mm 1 mps 634 mmHg 81%
    02:00 +4°C° 0 mm 1 mps 634 mmHg 81%
    03:00 +3°C° 0 mm 1 mps 634 mmHg 81%
    04:00 +3°C° 0 mm 1 mps 634 mmHg 81%
    05:00 +4°C° 0 mm 1 mps 634 mmHg 80%
    06:00 +5°C° 0 mm 1 mps 635 mmHg 80%
    07:00 +5°C° 0 mm 1 mps 635 mmHg 79%
    08:00 +8°C° 0 mm 1 mps 636 mmHg 73%
    09:00 +10°C° 0 mm 1 mps 636 mmHg 67%
    10:00 +12°C° 0 mm 1 mps 637 mmHg 61%
    11:00 +13°C° 0 mm 1 mps 637 mmHg 57%
    12:00 +13°C° 0 mm 1 mps 637 mmHg 53%
    13:00 +14°C° 0 mm 1 mps 637 mmHg 49%
    14:00 +14°C° 0 mm 1 mps 637 mmHg 51%
    15:00 +14°C° 0 mm 1 mps 636 mmHg 52%
    16:00 +13°C° 0 mm 1 mps 636 mmHg 54%
    17:00 +11°C° 0.1 mm 1 mps 635 mmHg 64%
    18:00 +9°C° 0.1 mm 1 mps 634 mmHg 75%
    19:00 +7°C° 0.1 mm 1 mps 634 mmHg 85%
    20:00 +6°C° 0 mm 1 mps 634 mmHg 86%
    21:00 +6°C° 0 mm 1 mps 634 mmHg 87%
    22:00 +5°C° 0 mm 1 mps 634 mmHg 88%
    23:00 +5°C° 0 mm 1 mps 634 mmHg 87%

    Day after tomorrow, 12 April, Sunday

    Time Temperature Precipitation Wind Pressure Humidity
    00:00 +5°C° 0 mm 1 mps 634 mmHg 86%
    01:00 +4°C° 0 mm 1 mps 634 mmHg 85%
    02:00 +4°C° 0 mm 1 mps 633 mmHg 83%
    03:00 +4°C° 0 mm 1 mps 633 mmHg 82%
    04:00 +4°C° 0 mm 1 mps 633 mmHg 81%
    05:00 +5°C° 0 mm 1 mps 633 mmHg 78%
    06:00 +5°C° 0 mm 1 mps 633 mmHg 75%
    07:00 +6°C° 0 mm 1 mps 634 mmHg 73%
    08:00 +8°C° 0 mm 1 mps 634 mmHg 65%
    09:00 +10°C° 0 mm 1 mps 634 mmHg 58%
    10:00 +12°C° 0 mm 1 mps 635 mmHg 50%
    11:00 +13°C° 0.1 mm 1 mps 635 mmHg 48%
    12:00 +14°C° 0.1 mm 1 mps 634 mmHg 45%
    13:00 +14°C° 0.1 mm 2 mps 634 mmHg 42%
    14:00 +14°C° 0.2 mm 2 mps 634 mmHg 44%
    15:00 +14°C° 0.2 mm 2 mps 633 mmHg 46%
    16:00 +13°C° 0.2 mm 2 mps 632 mmHg 47%
    17:00 +11°C° 0.3 mm 1 mps 631 mmHg 55%
    18:00 +9°C° 0.3 mm 1 mps 630 mmHg 64%
    19:00 +7°C° 0.3 mm 1 mps 629 mmHg 72%
    20:00 +6°C° 0 mm 1 mps 629 mmHg 72%
    21:00 +4°C° 0 mm 2 mps 629 mmHg 72%
    22:00 +4°C° 0 mm 2 mps 629 mmHg 72%
    23:00 +3°C° 0 mm 2 mps 629 mmHg 73%

    13 April, Monday

    Time Temperature Precipitation Wind Pressure Humidity
    00:00 +3°C° 0 mm 2 mps 629 mmHg 73%
    01:00 +2°C° 0 mm 2 mps 628 mmHg 74%
    02:00 +2°C° 0 mm 2 mps 628 mmHg 75%
    03:00 +2°C° 0 mm 2 mps 628 mmHg 76%
    04:00 +2°C° 0 mm 2 mps 628 mmHg 77%
    05:00 +3°C° 0 mm 1 mps 628 mmHg 75%
    06:00 +4°C° 0 mm 1 mps 628 mmHg 73%
    07:00 +5°C° 0 mm 1 mps 629 mmHg 72%
    08:00 +6°C° 0 mm 1 mps 629 mmHg 65%
    09:00 +8°C° 0 mm 1 mps 630 mmHg 59%
    10:00 +9°C° 0 mm 1 mps 630 mmHg 52%
    11:00 +10°C° 0 mm 1 mps 630 mmHg 50%
    12:00 +11°C° 0 mm 1 mps 630 mmHg 48%
    13:00 +12°C° 0 mm 2 mps 631 mmHg 46%
    14:00 +10°C° 0.2 mm 2 mps 630 mmHg 50%
    15:00 +10°C° 0.2 mm 2 mps 630 mmHg 54%
    16:00 +10°C° 0.2 mm 2 mps 629 mmHg 59%
    17:00 +9°C° 0.1 mm 1 mps 628 mmHg 68%
    18:00 +7°C° 0.1 mm 1 mps 628 mmHg 78%
    19:00 +5°C° 0.1 mm 0 mps 627 mmHg 87%
    20:00 +4°C° 0.1 mm 0 mps 627 mmHg 88%
    21:00 +4°C° 0.1 mm 0 mps 627 mmHg 88%
    22:00 +3°C° 0.1 mm 0 mps 627 mmHg 89%
    23:00 +3°C° 0 mm 0 mps 627 mmHg 89%

    14 April, Tuesday

    Time Temperature Precipitation Wind Pressure Humidity
    00:00 +3°C° 0 mm 0 mps 627 mmHg 90%
    01:00 +2°C° 0 mm 0 mps 627 mmHg 90%
    02:00 +2°C° 0 mm 0 mps 627 mmHg 90%
    03:00 +2°C° 0 mm 0 mps 627 mmHg 90%
    04:00 +3°C° 0 mm 1 mps 627 mmHg 91%
    05:00 +3°C° 0 mm 1 mps 627 mmHg 89%
    06:00 +4°C° 0 mm 1 mps 627 mmHg 87%
    07:00 +5°C° 0 mm 1 mps 627 mmHg 85%
    08:00 +6°C° 0 mm 1 mps 628 mmHg 78%
    09:00 +8°C° 0 mm 1 mps 628 mmHg 71%
    10:00 +10°C° 0 mm 1 mps 629 mmHg 64%
    11:00 +10°C° 0 mm 2 mps 629 mmHg 61%
    12:00 +10°C° 0 mm 2 mps 629 mmHg 57%
    13:00 +12°C° 0 mm 2 mps 629 mmHg 54%
    14:00 +12°C° 0 mm 2 mps 628 mmHg 55%
    15:00 +12°C° 0 mm 2 mps 628 mmHg 55%
    16:00 +12°C° 0 mm 2 mps 628 mmHg 56%
    17:00 +9°C° 0 mm 2 mps 627 mmHg 65%
    18:00 +7°C° 0 mm 2 mps 627 mmHg 73%
    19:00 +6°C° 0 mm 2 mps 626 mmHg 82%
    20:00 +5°C° 0 mm 2 mps 626 mmHg 83%
    21:00 +4°C° 0 mm 2 mps 626 mmHg 84%
    22:00 +2°C° 0 mm 3 mps 627 mmHg 85%
    23:00 +2°C° 0 mm 3 mps 627 mmHg 85%

    15 April, Wednesday

    Time Temperature Precipitation Wind Pressure Humidity
    00:00 +2°C° 0 mm 3 mps 627 mmHg 86%
    01:00 +2°C° 0 mm 3 mps 627 mmHg 86%
    02:00 +2°C° 0 mm 3 mps 627 mmHg 87%
    03:00 +1°C° 0 mm 3 mps 627 mmHg 87%
    04:00 +2°C° 0 mm 2 mps 627 mmHg 88%
    05:00 +3°C° 0 mm 2 mps 627 mmHg 85%
    06:00 +4°C° 0 mm 2 mps 628 mmHg 81%
    07:00 +4°C° 0 mm 2 mps 628 mmHg 78%
    08:00 +6°C° 0 mm 2 mps 628 mmHg 69%
    09:00 +8°C° 0 mm 2 mps 629 mmHg 60%
    10:00 +12°C° 0 mm 2 mps 630 mmHg 51%
    11:00 +11°C° 0 mm 3 mps 630 mmHg 49%
    12:00 +12°C° 0 mm 3 mps 630 mmHg 47%
    13:00 +13°C° 0 mm 3 mps 630 mmHg 46%
    14:00 +13°C° 0 mm 3 mps 630 mmHg 46%
    15:00 +13°C° 0 mm 3 mps 629 mmHg 47%
    16:00 +13°C° 0 mm 3 mps 629 mmHg 47%
    17:00 +11°C° 0 mm 3 mps 628 mmHg 54%
    18:00 +9°C° 0 mm 3 mps 628 mmHg 61%
    19:00 +7°C° 0 mm 3 mps 627 mmHg 68%
    20:00 +7°C° 0 mm 3 mps 627 mmHg 70%
    21:00 +5°C° 0 mm 3 mps 628 mmHg 73%
    22:00 +4°C° 0 mm 3 mps 628 mmHg 76%
    23:00 +4°C° 0 mm 3 mps 628 mmHg 79%
    Show more